Погода в Кескиле

Россия / Республика Саха (Якутия)     62°39′09″N   135°00′22″E
темп.,
°C
ветер,
м/с
пор.,
м/с
влажн.,
%
обл.,
%
осадки,
мм/ч
давл.,
гПа
погр.,
м
27 февраля, сб
сб2700:00−35всв119715 0.0 103419
03:00−35в12958 0.0 103219
06:00−36св11950 0.0 103219
09:00−33в11930 0.0 103174
12:00−26ссв11840 0.0 1029293
15:00−25всв12830 0.0 1026369
18:00−29св22920 0.0 102419
21:00−31ссв12910 0.0 102219
28 февраля, вс
вс2800:00−31ссз128616 0.0 101919
03:00−31ссв128446 0.0 101619
06:00−29св128590 0.0 101627
09:00−26ссз118395 0.0 101643
12:00−20всв2482100 0.0 1017267
15:00−18юв127962 0.0 1018379
18:00−23зюз119359 0.0 102120
21:00−25юз129580 0.0 102233
1 марта, пн
пн100:00−25ююз2395100 0.0 102394
03:00−27ююз2497100 0.0 1024147
06:00−27зюз1398100 0.1 102595
09:00−27зюз1296100 0.1 1025207
12:00−25зюз1286100 0.1 1025577
15:00−24зюз1283100 0.1 1025778
18:00−27з0197100 0.1 102619
21:00−28юз1198100 0.1 102619
2 марта, вт
вт200:00−31зюз1110098 0.0 102619
03:00−33зюз1110099 0.1 102619
06:00−33з11100100 0.0 102619
09:00−31з0198100 0.1 102586
12:00−27зсз1290100 0.0 1024385
15:00−26зсз1187100 0.1 1024544
18:00−28всв0198100 0.1 102519
21:00−28юв1198100 0.1 102619
3 марта, ср
ср300:00−29вюв0198100 0.1 102519
03:00−29в0198100 0.1 102519
06:00−29св0098100 0.1 102419
09:00−28ссз0096100 0.1 1023167
12:00−25сз1188100 0.1 1021514
15:00−25сз1284100 0.1 1019666
18:00−29зсз1196100 0.0 101819
21:00−30з1298100 0.0 101719